Location: Bourg-d�Oueil
(42.8588°N, 0.4991°E)
Time: 20:05:33
(UTC+00:00)

Cosmos 1725 Rocket - Pass Details

Date: 16 June 2021
Orbit: 962 x 990 km, 82.9° (Epoch: 31 July)

Event Time Altitude Azimuth Distance (km) Brightness Sun altitude
Rises 22:15:37 0° 350° (N) 3,658 8.4 -19.6°
Reaches altitude 10° 22:18:08 10° 348° (NNW) 2,707 7.5 -19.8°
Maximum altitude 22:24:17 72° 266° (W) 1,010 4.1 -20.3°
Enters shadow 22:27:20 32° 189° (S) 1,602 4.7 -20.5°
